Location: ???? ?????????
(44.3677°N, 135.2344°E)
Time: 18:09:07
(UTC+00:00)

ATLAS 3B R/B - Pass Details

Date: 19 May 2025
Orbit: 935 x 1258 km, 63.8° (Epoch: 20 June)

Event Time Altitude Azimuth Distance (km) Brightness Sun altitude
Exits shadow 14:21:28 41° 212° (SSW) 1,656 3.3 -25.3°
Maximum altitude 14:24:28 88° 127° (SE) 1,210 2.8 -25.3°
Drops below altitude 10° 14:32:19 10° 37° (NE) 3,226 5.8 -25.5°
Sets 14:35:10 0° 38° (NE) 4,211 6.5 -25.6°
